Location: Montboucher
(44.5504°N, 4.8024°E)
Time: 05:46:48
(UTC+00:00)

Daily predictions for brighter satellites

Satellite Brightness Start Highest point End
(mag) Time Altitude Azimuth Time Altitude Azimuth Time Altitude Azimuth
SL-16 R/B 4.4 00:12:20 24° NNE 00:12:20 24° NNE 00:15:25 10° N
Cosmos 2227 Rocket 4.1 01:22:47 10° NNW 01:25:13 24° N 01:25:13 24° N
Lacrosse 5 4.4 01:32:48 16° E 01:32:48 16° E 01:34:02 10° ENE
USA 234 4.2 01:27:16 10° E 01:33:21 44° NNE 01:37:44 19° NW
ADEOS II 3.7 01:35:26 10° NNE 01:38:28 31° NE 01:38:28 31° NE
IDEFIX/ARIANE 42P 4.4 01:49:07 10° NE 01:53:18 23° E 01:53:40 23° E
SL-16 R/B 4.2 01:57:26 22° NNW 01:57:26 22° NNW 01:59:36 10° NNW
ARIANE 5 R/B 3.9 01:57:50 10° NNE 02:01:51 34° E 02:01:51 34° E
CZ-2D R/B 3.7 01:59:32 10° N 02:02:04 27° N 02:02:04 27° N
ATLAS 5 CENTAUR R/B 3.8 02:07:56 21° N 02:07:56 21° N 02:09:56 10° NNE
Cosmos 2297 Rocket 4.4 02:09:38 10° NNW 02:10:32 15° NNW 02:10:32 15° NNW
Resurs 1-4 Rocket 3.8 02:13:33 10° N 02:15:58 24° NNW 02:15:58 24° NNW
Cosmos 2082 4.1 02:13:55 10° NNW 02:19:34 61° ENE 02:20:23 55° E
SJ 16-02 4.4 02:27:03 10° NNE 02:29:30 15° NE 02:31:58 10° E
Meteor 1-25 Rocket 4.5 02:26:03 10° N 02:31:52 68° ENE 02:33:00 55° SE
Cosmos 1697 Rocket 2.7 02:32:33 73° E 02:32:33 73° E 02:37:54 10° NNE
ASTEX 1 4.2 02:30:44 10° NNE 02:35:35 47° E 02:36:23 43° ESE
IRS-P3 4.3 02:30:51 10° NNE 02:35:28 67° N 02:35:28 67° N
Cosmos 1980 Rocket 3.1 02:35:19 39° SE 02:36:28 43° ESE 02:41:48 10° NE
H-2A R/B 4.2 02:32:52 10° ESE 02:36:30 26° ENE 02:40:12 10° N
USA 267 3.2 02:34:48 10° NE 02:41:20 73° NW 02:42:17 63° W
Cosmos 2263 Rocket 4.1 02:40:40 10° N 02:45:34 29° NE 02:50:28 10° ESE
SL-8 R/B 4.2 02:46:01 56° NNE 02:46:01 56° NNE 02:50:35 10° E
ERS-1 4.5 02:40:45 10° NNE 02:45:42 83° NNE 02:45:42 83° NNE
USA 307 3.5 02:52:25 54° ENE 02:52:25 54° ENE 02:55:45 10° NE
USA 308 3.4 02:55:23 58° NE 02:55:23 58° NE 02:58:51 10° NE
Cosmos 1821 Rocket 3.8 02:49:00 10° NNW 02:55:18 73° W 02:56:29 58° SSW
Cosmos 1470 Rocket 4.2 02:52:08 10° N 02:55:25 50° N 02:55:25 50° N
Spot 4 Rocket 4.0 02:53:39 10° NNE 02:58:49 79° ESE 02:59:44 60° S
SL-24 R/B 4.4 02:59:50 64° NW 02:59:50 64° NW 03:04:16 10° NNW
Landsat 5 4.5 03:00:01 10° SE 03:04:22 50° ENE 03:08:44 10° N
Celestis-02/Orion 38 4.4 03:00:37 10° SSE 03:05:54 78° WSW 03:11:07 10° NNW
Cosmos 1782 3.0 03:10:10 67° N 03:10:10 67° N 03:13:42 10° N
Cosmos 1934 Rocket 3.9 03:04:16 10° N 03:10:21 87° E 03:16:26 10° S
Cosmos 1777 Rocket 3.8 03:05:42 10° NNW 03:10:54 68° WSW 03:12:06 51° SSW
Lacrosse 5 1.8 03:12:00 61° WNW 03:12:33 66° NW 03:17:36 10° NE
Cosmos 1238 Rocket 4.0 03:05:58 10° N 03:12:40 82° E 03:18:48 10° S
ADEOS Rocket 4.3 03:08:36 10° SE 03:14:59 43° ENE 03:20:48 10° N
Cosmos 1515 Rocket 3.4 03:15:08 73° W 03:15:09 73° W 03:19:37 10° N
USA 234 3.1 03:09:34 10° SE 03:16:06 78° SW 03:22:39 10° NW
CZ-2C R/B 2.6 03:14:41 10° NNE 03:18:28 84° ESE 03:18:32 83° SE
Meteor 1-20 Rocket 4.3 03:13:40 10° NNW 03:18:42 47° W 03:18:42 47° W
Nadezhda 3 Rocket 4.2 03:18:39 45° WSW 03:19:41 49° WNW 03:25:39 10° N
ADEOS II 3.3 03:15:40 10° N 03:19:24 25° NW 03:19:24 25° NW
USA 276 3.4 03:21:38 35° N 03:21:38 35° N 03:24:13 10° ENE
Cosmos 972 Rocket 4.1 03:24:15 46° WNW 03:24:33 47° WNW 03:29:18 10° N
Cosmos 44 3.1 03:24:49 49° SSW 03:25:55 76° ESE 03:30:32 10° NE
Cosmos 1356 3.6 03:25:31 10° NNW 03:28:28 62° NNW 03:28:28 62° NNW
MSX 3.7 03:23:35 10° NNE 03:29:23 77° WNW 03:32:39 27° SSW
Cosmos 921 Rocket 3.4 03:27:48 27° S 03:29:53 58° ESE 03:34:01 10° NNE
Cosmos 2278 3.7 03:28:11 41° SW 03:30:10 68° WNW 03:35:53 10° NNE
Timation 1 Rocket 4.2 03:24:22 10° NNW 03:30:21 71° WSW 03:36:19 10° SSE
IDEFIX/ARIANE 42P 2.8 03:28:03 10° N 03:33:07 48° WNW 03:34:28 39° WSW
Cosmos 1605 Rocket 4.1 03:26:44 10° N 03:33:10 85° E 03:39:34 10° S
Cosmos 2228 Rocket 3.0 03:31:12 30° S 03:33:18 88° ESE 03:37:44 10° N
CZ-3B R/B 3.3 03:32:05 25° NW 03:33:27 32° N 03:41:09 10° ENE
Cosmos 1933 Rocket 3.6 03:29:40 10° NNW 03:33:55 52° W 03:34:18 51° WSW
Cosmos 1535 Rocket 4.5 03:27:39 10° NNW 03:33:59 67° W 03:40:18 10° S
Cosmos 2369 4.3 03:36:40 34° W 03:38:15 41° WNW 03:43:40 10° NNE
ARIANE 5 R/B 3.3 03:37:04 10° N 03:41:31 31° WNW 03:42:11 30° W
CZ-4C R/B 3.1 03:42:39 51° SW 03:43:07 56° W 03:46:40 10° NNW
ALOS 4.1 03:44:05 10° NNE 03:48:15 31° E 03:52:23 10° SSE
IRIDIUM 106 4.3 03:43:52 10° N 03:49:07 86° E 03:54:21 10° S
Cosmos 1536 4.4 03:47:56 10° N 03:51:45 37° ENE 03:55:33 10° SE
ATLAS 5 CENTAUR R/B 4.2 03:50:58 10° NNW 03:52:01 11° NNW 03:53:06 10° N
Cosmos 1869 Rocket 3.4 03:48:35 10° N 03:52:57 84° W 03:57:16 10° S
GENESIS II 4.5 03:51:47 24° SSW 03:54:06 70° ESE 03:58:08 10° NE
Meteor 1-4 Rocket 2.6 03:52:32 13° S 03:55:35 72° E 03:59:04 10° NNE
Cosmos 1484 Rocket 4.5 03:53:23 10° NNE 03:57:05 36° E 04:00:46 10° SSE
USA 305 3.8 03:58:51 24° WNW 04:00:46 38° NNW 04:04:47 10° NE
X-37B 0.6 04:01:25 36° W 04:02:36 81° N 04:05:47 10° E
USA 306 3.8 04:02:46 22° WNW 04:04:53 36° NNW 04:08:51 10° NE
Cosmos 1763 Rocket 3.9 04:00:34 10° S 04:05:50 69° ESE 04:11:08 10° NNE
Cosmos 1727 Rocket 4.0 03:59:30 10° S 04:05:52 88° W 04:12:15 10° N
Cosmos 389 Rocket 3.8 04:06:11 22° WNW 04:06:11 22° WNW 04:08:58 10° NNW
Meteor 1-31 Rocket 4.3 04:04:17 10° NNE 04:07:52 37° E 04:11:26 10° SSE
SJ 16-02 1.2 04:04:12 10° NNW 04:08:34 67° WSW 04:12:55 10° S
PSLV R/B 3.6 04:06:20 10° N 04:10:28 54° WNW 04:14:17 11° SSW
Cosmos 2360 Rocket 4.0 04:05:35 10° SSE 04:10:32 32° ESE 04:15:31 10° NE
H-2A R/B 2.7 04:08:25 10° SSW 04:12:19 33° W 04:16:21 10° NNW
ERS-2 2.3 04:09:41 10° S 04:13:12 46° W 04:16:46 10° NNW
Cosmos 1697 Rocket 4.1 04:14:19 16° W 04:16:51 21° NW 04:21:01 10° N
CZ-2C R/B 2.6 04:13:07 10° N 04:18:07 56° WNW 04:23:10 10° SSW
Gbstr 26 Del rocket 4.4 04:11:44 10° WNW 04:19:50 87° NNE 04:26:55 10° ESE
Cosmos 1980 Rocket 3.1 04:17:07 18° WSW 04:20:35 32° NW 04:25:39 10° N
PAYLOAD A 4.2 04:17:10 10° N 04:21:37 43° WNW 04:26:02 10° SW
USA 267 4.3 04:17:57 10° NE 04:23:46 35° NNW 04:29:33 10° WNW
Meteor 1-10 Rocket 4.5 04:19:58 10° SSW 04:25:34 53° WNW 04:31:19 10° N
Cosmos 2322 Rocket 2.4 04:20:03 10° SSW 04:25:41 78° ESE 04:31:25 10° NNE
FENGYUN 3A 3.9 04:20:25 10° NNE 04:25:50 74° ESE 04:31:13 10° S
SJ-6F 4.4 04:23:16 10° N 04:27:22 69° WNW 04:31:26 10° SSW
NOSS 3-3 (A) 4.1 04:22:36 13° SW 04:27:40 59° NW 04:34:11 10° NNE
NOSS 3-3 (C) 4.1 04:22:46 13° SW 04:27:47 59° NW 04:34:15 10° NNE
Cosmos 990 Rocket 3.9 04:23:06 10° NNW 04:28:16 66° WSW 04:33:25 10° S
SL-8 R/B 3.7 04:24:00 11° WNW 04:28:33 68° SSW 04:33:17 10° SE
Cosmos 1459 Rocket 4.0 04:23:23 10° N 04:29:32 85° E 04:35:35 10° S
Cosmos 2263 Rocket 2.4 04:24:17 10° NW 04:29:43 48° WSW 04:35:08 10° S
Cosmos 1812 3.6 04:27:26 12° SW 04:30:24 29° WNW 04:33:47 10° NNW
Cosmos 468 Rocket 4.0 04:25:13 10° SSW 04:30:29 67° WNW 04:35:46 10° NNE
USA 307 4.2 04:28:36 12° WNW 04:31:56 29° NNW 04:35:42 10° NE
SL-16 R/B 2.2 04:27:43 10° SSW 04:33:23 77° WNW 04:39:06 10° NNE
USA 308 4.2 04:31:34 11° WNW 04:35:03 29° NNW 04:38:48 10° NE
COSMO-SKYMED 1 3.4 04:30:50 10° SSE 04:35:04 55° ENE 04:39:19 10° N
Cosmos 1844 Rocket 4.0 04:31:15 10° NNW 04:36:40 45° ENE 04:42:04 10° SE
SL-4 R/B 3.0 04:33:44 10° SW 04:38:11 52° SE 04:42:52 10° ENE
Cosmos 540 Rocket 3.9 04:33:59 10° S 04:39:06 69° ESE 04:44:16 10° NNE
Cosmos 44 Rocket 4.4 04:36:09 10° S 04:40:38 46° ESE 04:45:15 10° NE
ATLAS CENTAUR R/B 4.0 04:32:53 10° NW 04:41:33 37° NNE 04:45:19 10° E
Cosmos 1666 3.2 04:39:21 10° NNW 04:42:54 36° W 04:46:23 10° SSW
ATLAS 2AS CENTAUR R/B 3.3 04:35:56 10° NW 04:43:27 66° NE 04:50:19 10° SE
ERBS 2.7 04:42:54 11° WSW 04:46:04 49° NW 04:49:21 10° NE
CZ-4B R/B 2.0 04:44:32 10° SSW 04:47:20 29° W 04:50:12 10° NW
Lacrosse 5 3.4 04:52:10 10° WNW 04:56:18 24° NNW 05:00:27 10° NE
deb Chang Zheng 4 4.1 04:52:21 10° N 04:56:22 39° WNW 05:00:20 10° SW
Cosmos 1898 Rocket 3.9 04:51:48 10° NW 04:56:42 41° WSW 05:01:37 10° S
Cosmos 1908 Rocket 4.4 04:52:40 10° N 04:57:04 57° E 05:01:28 10° SSE
USA 276 3.6 04:55:04 10° WNW 04:57:58 30° N 05:00:53 10° ENE
Cosmos 2173 Rocket 4.1 04:53:30 10° NNW 04:59:41 57° W 05:05:52 10° SSW
USA 234 4.4 04:55:01 10° S 04:59:46 21° WSW 05:04:33 10° WNW
ADEOS Rocket 3.7 04:54:14 10° SSW 05:00:32 36° W 05:06:17 10° NNW
CZ-4B R/B 2.6 04:56:51 10° NNE 05:00:35 87° WNW 05:04:10 10° SSW
CZ-4B R/B 4.2 04:56:30 10° N 05:00:41 53° WNW 05:04:59 10° SSW
Cosmos 2242 Rocket 4.2 04:56:38 10° S 05:00:57 62° E 05:05:19 10° NNE
BREEZE-M DEB (TANK) 2.3 04:55:21 10° WSW 05:01:42 85° SSE 05:04:16 10° ENE
Cosmos 2219 Rocket 4.4 04:57:29 10° SSE 05:02:23 31° ESE 05:07:19 10° NE
